Location: *
(48.7358°N, 0.3111°E)
Time: 00:19:01
(UTC+00:00)

Cosmos 2218 Rocket - Pass Details

Date: 22 October 2019
Orbit: 955 x 1007 km, 82.9° (Epoch: 11 November)

Event Time Altitude Azimuth Distance (km) Brightness Sun altitude
Rises 05:34:07 0° 192° (SSW) 3,716 7.0 -9.7°
Reaches altitude 10° 05:36:39 10° 193° (SSW) 2,765 6.3 -9.3°
Maximum altitude 05:43:01 77° 280° (W) 1,023 4.0 -8.3°
Drops below altitude 10° 05:49:21 10° 7° (N) 2,751 6.4 -7.2°
Sets 05:51:52 0° 9° (N) 3,696 7.0 -6.8°
